| time (UTC) | temp F | wind direction | speed MPH | gust MPH | rain 1hr in | rain 24hr in | rain mn in | humidity % | barometer mb |
| 20260507084504 | 38 | 270 | 1.0 | 0.0 | 0.00 | 0.00 | 0.01 | 100 | 1010.8 |
| 20260507083001 | 39 | 271 | 2.0 | 0.0 | 0.00 | 0.00 | 0.01 | 100 | 1010.4 |
| 20260507081557 | 39 | 268 | 1.0 | 0.0 | 0.00 | 0.00 | 0.01 | 100 | 1010.4 |
| 20260507080118 | 40 | 288 | 2.0 | 0.0 | 0.00 | 0.00 | 0.01 | 100 | 1010.4 |
| 20260507074554 | 40 | 287 | 2.0 | 0.0 | 0.00 | 0.00 | 0.01 | 100 | 1010.5 |
| 20260507073052 | 40 | 258 | 1.0 | 0.0 | 0.00 | 0.00 | 0.01 | 100 | 1010.5 |
| 20260507071543 | 40 | 283 | 3.0 | 0.0 | 0.00 | 0.00 | 0.00 | 100 | 1010.3 |
| 20260507070038 | 41 | 258 | 4.0 | 0.0 | 0.00 | 0.00 | 0.00 | 100 | 1010.0 |
| 20260507064533 | 41 | 254 | 1.0 | 0.0 | 0.00 | 0.00 | 0.00 | 100 | 1010.0 |
| 20260507063029 | 41 | 237 | 2.0 | 0.0 | 0.00 | 0.00 | 0.00 | 100 | 1009.8 |
| 20260507061525 | 40 | 277 | 1.0 | 0.0 | 0.00 | 0.00 | 0.00 | 100 | 1009.7 |
| 20260507060022 | 40 | 277 | 0.0 | 0.0 | 0.00 | 0.00 | 0.00 | 100 | 1009.6 |
| 20260507054521 | 40 | 277 | 0.0 | 0.0 | 0.00 | 0.00 | 0.00 | 100 | 1009.6 |
| 20260507053014 | 40 | 277 | 0.0 | 0.0 | 0.00 | 0.00 | 0.00 | 100 | 1009.8 |
| 20260507051510 | 40 | 277 | 0.0 | 0.0 | 0.00 | 0.00 | 0.00 | 100 | 1010.0 |
| 20260507050006 | 41 | 277 | 0.0 | 0.0 | 0.00 | 0.00 | 0.00 | 100 | 1009.6 |
| 20260507044502 | 41 | 277 | 0.0 | 0.0 | 0.00 | 0.00 | 0.00 | 100 | 1010.0 |
| 20260507043058 | 41 | 277 | 0.0 | 0.0 | 0.00 | 0.00 | 0.00 | 100 | 1009.9 |
| 20260507041555 | 41 | 277 | 0.0 | 0.0 | 0.00 | 0.00 | 0.00 | 100 | 1010.3 |
| 20260507040056 | 42 | 277 | 0.0 | 0.0 | 0.00 | 0.00 | 0.00 | 100 | 1009.7 |
| 20260507034555 | 42 | 277 | 0.0 | 0.0 | 0.00 | 0.00 | 0.64 | 100 | 1010.2 |
| 20260507033049 | 42 | 277 | 0.0 | 0.0 | 0.00 | 0.00 | 0.64 | 100 | 1009.8 |
| 20260507031541 | 42 | 277 | 0.0 | 0.0 | 0.00 | 0.00 | 0.64 | 100 | 1010.1 |
| 20260507030036 | 42 | 277 | 1.0 | 0.0 | 0.00 | 0.00 | 0.64 | 100 | 1010.0 |
| 20260507024532 | 42 | 275 | 0.0 | 0.0 | 0.00 | 0.00 | 0.64 | 100 | 1010.2 |
| 20260507023027 | 42 | 275 | 2.0 | 0.0 | 0.00 | 0.00 | 0.64 | 100 | 1010.0 |
| 20260507021524 | 43 | 268 | 2.0 | 0.0 | 0.00 | 0.00 | 0.64 | 100 | 1010.1 |
| 20260507020021 | 43 | 266 | 3.0 | 0.0 | 0.00 | 0.00 | 0.64 | 100 | 1010.2 |
| 20260507014523 | 43 | 272 | 2.0 | 0.0 | 0.00 | 0.00 | 0.64 | 100 | 1010.2 |
| 20260507013023 | 43 | 271 | 0.0 | 0.0 | 0.00 | 0.00 | 0.64 | 100 | 1009.9 |
| 20260507011511 | 43 | 269 | 0.0 | 0.0 | 0.00 | 0.00 | 0.64 | 100 | 1009.7 |
| 20260507010004 | 44 | 270 | 2.0 | 0.0 | 0.00 | 0.00 | 0.64 | 100 | 1009.6 |
| 20260507004607 | 44 | 275 | 1.0 | 0.0 | 0.00 | 0.00 | 0.64 | 100 | 1009.4 |
| 20260507003055 | 44 | 275 | 2.0 | 0.0 | 0.00 | 0.00 | 0.64 | 100 | 1009.3 |
| 20260507001552 | 44 | 265 | 1.0 | 0.0 | 0.00 | 0.00 | 0.63 | 100 | 1009.0 |
| 20260507000051 | 44 | 265 | 1.0 | 0.0 | 0.00 | 0.00 | 0.63 | 100 | 1009.0 |
| 20260506234548 | 44 | 273 | 3.0 | 0.0 | 0.00 | 0.00 | 0.63 | 100 | 1008.8 |
| 20260506233051 | 45 | 267 | 0.0 | 0.0 | 0.00 | 0.00 | 0.63 | 100 | 1008.6 |
| 20260506231535 | 45 | 268 | 2.0 | 0.0 | 0.00 | 0.00 | 0.63 | 100 | 1008.2 |
| 20260506230040 | 45 | 261 | 1.0 | 0.0 | 0.00 | 0.00 | 0.63 | 100 | 1007.9 |
| 20260506224533 | 46 | 259 | 1.0 | 0.0 | 0.00 | 0.00 | 0.63 | 100 | 1007.9 |
| 20260506223031 | 46 | 244 | 1.0 | 0.0 | 0.00 | 0.00 | 0.63 | 100 | 1008.1 |
| 20260506221521 | 47 | 286 | 1.0 | 0.0 | 0.00 | 0.00 | 0.62 | 100 | 1007.6 |
| 20260506220019 | 48 | 267 | 1.0 | 0.0 | 0.00 | 0.00 | 0.62 | 100 | 1007.1 |
| 20260506214526 | 49 | 236 | 2.0 | 0.0 | 0.00 | 0.00 | 0.60 | 100 | 1006.6 |
| 20260506213016 | 49 | 224 | 2.0 | 0.0 | 0.00 | 0.00 | 0.60 | 100 | 1006.3 |
| 20260506211506 | 50 | 252 | 2.0 | 0.0 | 0.00 | 0.00 | 0.60 | 100 | 1005.7 |
| 20260506210003 | 52 | 308 | 4.0 | 0.0 | 0.00 | 0.00 | 0.60 | 100 | 1005.5 |
| 20260506204557 | 55 | 268 | 6.0 | 0.0 | 0.00 | 0.00 | 0.59 | 100 | 1005.2 |
| 20260506203054 | 57 | 229 | 4.0 | 0.0 | 0.00 | 0.00 | 0.56 | 100 | 1004.4 |
| 20260506201549 | 57 | 205 | 5.0 | 0.0 | 0.00 | 0.00 | 0.56 | 100 | 1004.4 |
| 20260506200047 | 57 | 243 | 2.0 | 0.0 | 0.00 | 0.00 | 0.56 | 100 | 1004.3 |
| 20260506194542 | 57 | 233 | 2.0 | 0.0 | 0.00 | 0.00 | 0.56 | 100 | 1004.5 |
| 20260506193039 | 57 | 236 | 1.0 | 0.0 | 0.00 | 0.00 | 0.56 | 100 | 1004.6 |
| 20260506191533 | 57 | 242 | 5.0 | 0.0 | 0.00 | 0.00 | 0.56 | 100 | 1004.8 |
| 20260506190029 | 57 | 204 | 4.0 | 0.0 | 0.00 | 0.00 | 0.56 | 100 | 1004.7 |
| 20260506184541 | 57 | 209 | 3.0 | 0.0 | 0.00 | 0.00 | 0.56 | 100 | 1005.0 |
| 20260506183030 | 57 | 202 | 3.0 | 0.0 | 0.00 | 0.00 | 0.56 | 100 | 1004.7 |
| 20260506181519 | 57 | 180 | 4.0 | 0.0 | 0.00 | 0.00 | 0.56 | 100 | 1004.9 |
| 20260506180016 | 57 | 198 | 1.0 | 0.0 | 0.00 | 0.00 | 0.55 | 100 | 1005.1 |
| 20260506174510 | 57 | 204 | 2.0 | 0.0 | 0.00 | 0.00 | 0.54 | 100 | 1005.1 |
| 20260506173005 | 56 | 244 | 4.0 | 0.0 | 0.00 | 0.00 | 0.53 | 100 | 1005.2 |
| 20260506171502 | 56 | 239 | 3.0 | 0.0 | 0.00 | 0.00 | 0.50 | 100 | 1005.2 |
| 20260506170059 | 56 | 223 | 3.0 | 0.0 | 0.00 | 0.00 | 0.48 | 100 | 1005.1 |
| 20260506164605 | 56 | 225 | 2.0 | 0.0 | 0.00 | 0.00 | 0.46 | 100 | 1005.2 |
| 20260506163052 | 56 | 220 | 3.0 | 0.0 | 0.00 | 0.00 | 0.42 | 100 | 1005.3 |
| 20260506161548 | 57 | 219 | 1.0 | 0.0 | 0.00 | 0.00 | 0.35 | 100 | 1005.3 |
| 20260506160051 | 57 | 217 | 1.0 | 0.0 | 0.00 | 0.00 | 0.32 | 100 | 1005.3 |
| 20260506154538 | 57 | 212 | 1.0 | 0.0 | 0.00 | 0.00 | 0.31 | 100 | 1005.2 |
| 20260506153045 | 56 | 182 | 3.0 | 0.0 | 0.00 | 0.00 | 0.28 | 100 | 1005.4 |
| 20260506151529 | 56 | 208 | 2.0 | 0.0 | 0.00 | 0.00 | 0.28 | 100 | 1005.5 |
| 20260506150031 | 56 | 191 | 2.0 | 0.0 | 0.00 | 0.00 | 0.27 | 100 | 1005.7 |
| 20260506144525 | 56 | 190 | 3.0 | 0.0 | 0.00 | 0.00 | 0.26 | 100 | 1005.7 |
| 20260506143019 | 56 | 171 | 3.0 | 0.0 | 0.00 | 0.00 | 0.24 | 100 | 1005.7 |
| 20260506141514 | 56 | 178 | 3.0 | 0.0 | 0.00 | 0.00 | 0.22 | 100 | 1006.4 |
| 20260506140015 | 56 | 195 | 2.0 | 0.0 | 0.00 | 0.00 | 0.20 | 100 | 1006.4 |
| 20260506134506 | 55 | 202 | 2.0 | 0.0 | 0.00 | 0.00 | 0.17 | 100 | 1006.4 |
| 20260506133002 | 55 | 198 | 1.0 | 0.0 | 0.00 | 0.00 | 0.15 | 100 | 1006.4 |
| 20260506131558 | 55 | 198 | 2.0 | 0.0 | 0.00 | 0.00 | 0.14 | 100 | 1006.1 |
| 20260506124551 | 54 | 219 | 0.0 | 0.0 | 0.00 | 0.00 | 0.12 | 100 | 1006.0 |
| 20260506123047 | 54 | 219 | 0.0 | 0.0 | 0.00 | 0.00 | 0.11 | 100 | 1006.1 |
| 20260506121542 | 55 | 219 | 0.0 | 0.0 | 0.00 | 0.00 | 0.10 | 100 | 1006.5 |
| 20260506114536 | 56 | 219 | 1.0 | 0.0 | 0.00 | 0.00 | 0.07 | 18 | 1007.0 |
| 20260506113039 | 57 | 219 | 0.0 | 0.0 | 0.00 | 0.00 | 0.05 | 33 | 1006.9 |
| 20260506111528 | 58 | 219 | 2.0 | 0.0 | 0.00 | 0.00 | 0.03 | 50 | 1006.7 |
| 20260506104519 | 60 | 217 | 0.0 | 0.0 | 0.00 | 0.00 | 0.01 | 58 | 1006.2 |
| 20260506103015 | 60 | 217 | 1.0 | 0.0 | 0.00 | 0.00 | 0.01 | 58 | 1006.2 |
| 20260506101513 | 60 | 217 | 2.0 | 0.0 | 0.00 | 0.00 | 0.01 | 57 | 1006.0 |
| 20260506094504 | 59 | 229 | 1.0 | 0.0 | 0.00 | 0.00 | 0.01 | 56 | 1006.0 |
| 20260506093100 | 58 | 219 | 1.0 | 0.0 | 0.00 | 0.00 | 0.01 | 54 | 1006.0 |
| 20260506091600 | 57 | 219 | 1.0 | 0.0 | 0.00 | 0.00 | 0.01 | 43 | 1005.9 |